Regional Weather Roundup
Issued by NWS

Home | Current Version | Previous Version | Text Only | Print | Product List | Glossary Off
Versions: 1 2 3 4 5 6 7 8 9 10 11 12 13 14 15 16 17 18 19 20 21 22 23 24 25 26 27 28 29 30 31 32 33 34 35 36 37 38 39 40 41 42 43 44 45 46 47 48 49 50

000
ASUS43 KDTX 231101
RWRMI
MICHIGAN HOURLY REGIONAL WEATHER ROUNDUP
NATIONAL WEATHER SERVICE DETROIT/PONTIAC MI
700 AM EDT SAT AUG 23 2014

NOTE: "FAIR" INDICATES FEW OR NO CLOUDS BELOW 12,000 FEET WITH NO
SIGNIFICANT WEATHER AND/OR OBSTRUCTION TO VISIBILITY.

MIZ047>049-052>055-059>063-066>070-074>076-081>083-231200-
SOUTHEAST LOWER MICHIGAN

CITY           SKY/WX    TMP DP  RH WIND       PRES   REMARKS
ADRIAN         CLOUDY    67  64  90 NE5       30.04R
ALMA           PTCLDY    58  57  97 NE5       30.07R FOG
ANN ARBOR      CLOUDY    68  60  75 CALM      30.04R
BAD AXE        FOG       62  62 100 NE5       30.08R VSB 1/2
CARO           FOG       59  59 100 CALM      30.07R VSB 1/4
DETROIT CITY   CLOUDY    66  63  90 NE5       30.04R FOG
DETROIT        MOCLDY    68  60  75 NE5       30.04R
FLINT          FOG       65  61  87 N6        30.06R VSB 1/4
GROSSE ILE     MOCLDY    68  64  88 N3        30.02R
HILLSDALE      MOCLDY    65  65  99 CALM      30.04R
HOWELL         CLEAR     63  62  97 CALM      30.05R

CITY           SKY/WX    TMP DP  RH WIND       PRES   REMARKS
JACKSON        CLOUDY    69  65  86 E3        30.04R
LAMBERTVILLE   MOCLDY    66  63  88 CALM      30.03R
LANSING        PTCLDY    64  62  93 NE5       30.05R
LAPEER         FOG       62  60  96 N3        30.06R VSB<1/4
MASON          CLOUDY    65  63  91 NE3       30.05S
MONROE         MOCLDY    66  64  94 CALM      30.02R
MT. CLEMENS    FOG       64  64  99 N5        30.04R VSB 1/2
PONTIAC        PTCLDY    64  61  90 CALM      30.04R
PORT HOPE        N/A     62  61  96 VRB3      30.06R
PORT HURON     CLOUDY    64  64 100 CALM      30.05R FOG
TRI CITIES     CLEAR     64  62  93 NE8       30.06R
TROY           FOG       64  62  92 NE6       30.06R VSB 1
SAGINAW HB     FOG       61  61 100 CALM      30.06R VSB<1/4
$$
MIZ043>046-050>051-056>058-064>065-071>073-077>080-231200-
SOUTHWEST LOWER MICHIGAN

CITY           SKY/WX    TMP DP  RH WIND       PRES   REMARKS
BATTLE CREEK   MOCLDY    71  67  87 E6        30.03R
BENTON HARBOR  FOG       69  69 100 CALM      29.98F VSB 1/2
BIG RAPIDS     FOG       63  63 100 E5        30.06R VSB 1/2
COLDWATER      CLOUDY    71  70  96 E7        30.02R FOG
FREMONT        FAIR      65  64  96 E6        30.03R
HOLLAND        CLEAR     69  66  90 E6        30.01S
GRAND RAPIDS   PTCLDY    67  67 100 E8        30.03R
IONIA          FAIR      63  62  97 E6        30.04R
KALAMAZOO      CLOUDY    70  69  97 CALM      30.01S FOG
LUDINGTON      CLOUDY    64  63  94 E5        30.02F
MARSHALL       MOCLDY    68  67  95 CALM      30.03R FOG
MOUNT PLEASANT FOG       63  62  97 CALM      30.07R VSB 3/4
MUSKEGON       CLEAR     67  63  87 E7        30.02R
SOUTH HAVEN    CLEAR     69  69 100 E3        29.99S FOG
$$
MIZ016>042-231200-
NORTHERN LOWER MICHIGAN

CITY           SKY/WX    TMP DP  RH WIND       PRES   REMARKS
ALPENA         FOG       58  58 100 W5        30.09R VSB 1/4
BEAVER ISLAND  CLOUDY    66  64  94 E7        30.06S
BELLAIRE       MOCLDY    62  61  96 CALM      30.06R FOG
CADILLAC       CLEAR     60  60 100 NE3       30.07S
CHARLEVOIX     CLOUDY    67  66  94 SE5       30.09R
FRANKFORT      PTCLDY    68  61  78 CALM      30.03R
GAYLORD        CLEAR     60  58  92 CALM      30.10R
GRAYLING       FOG       59  59 100 CALM      30.09S VSB<1/4
HARBOR SPRINGS CLEAR     62  61  96 E3        30.08R FOG
HOUGHTON LAKE  FOG       56  56 100 CALM      30.09S VSB 1
MANISTEE       PTCLDY    64  61  88 E7        30.03F
OSCODA         FOG       61  61 100 NW3       30.07R VSB 1/2
PELLSTON       FOG       58  57  97 CALM      30.09R VSB 1
ROGERS CITY    FOG       58  58 100 CALM      30.10R VSB<1/4
TRAVERSE CITY  PTCLDY    66  61  84 CALM      30.04S
$$
MIZ007>008-015-231200-
EASTERN UPPER MICHIGAN

CITY           SKY/WX    TMP DP  RH WIND       PRES   REMARKS
KINROSS        CLOUDY    63  61  94 E5        30.10R
MACKINAC ISLAN CLEAR     61  61 100 E3        30.08S FOG
NEWBERRY       CLOUDY    60  60  99 NW5       30.08S FOG
S. S. MARIE    CLEAR     62  60  93 NE3       30.09R FOG
$$
MIZ004>006-011>014-085-231200-
CENTRAL UPPER MICHIGAN

CITY           SKY/WX    TMP DP  RH WIND       PRES   REMARKS
MANISTIQUE     CLOUDY    67  64  88 E8        30.05S
ESCANABA       CLOUDY    66  64  94 E6        30.03S
MENOMINEE      CLOUDY    66  64  94 NE3       30.00S
SAWYER-GWINN   CLOUDY    64  64 100 E5        30.05S FOG
$$
MIZ001>003-009>011-084-231200-
WESTERN UPPER MICHIGAN

CITY           SKY/WX    TMP DP  RH WIND       PRES   REMARKS
IRON MOUNTAIN  CLOUDY    67  65  93 CALM      30.03R
HOUGHTON       FOG       63  61  93 E7        30.05R VSB 1/4
COPPER HARBOR    N/A     54  52  93 VRB3      30.07R
$$

ABBREVIATIONS USED IN REMARKS
   TC - TEMPERATURE IN CELSIUS
  WCI - WIND CHILL INDEX
   HX - HEAT INDEX
  VSB - VISIBILITY



USA.gov is the U.S. government's official web portal to all federal, state and local government web resources and services.